Weather History for Miami, FL

Change the Weather History Date:

Tuesday, December 17, 2013

  Actual Average Record
Temperature  
Mean Temperature 70 °F 70 °F  
Max Temperature 79 °F 78 °F 85 °F (1965)
Min Temperature 61 °F 63 °F 41 °F (1942)
Degree Days  
Heating Degree Days 0 1  
Month to date heating degree days 0 13  
Since 1 July heating degree days 2 16  
Cooling Degree Days 5 6  
Month to date cooling degree days 173 122  
Year to date cooling degree days 4714 4494  
Growing Degree Days 20 (Base 50)    
Moisture  
Dew Point 59 °F    
Average Humidity 72    
Maximum Humidity 90    
Minimum Humidity 54    
Precipitation  
Precipitation 0.00 in 0.07 in 0.94 in (1963)
Month to date precipitation 0.46 1.17  
Year to date precipitation 66.21 61.03  
Snow  
Snow 0.00 in - - ()
Month to date snowfall 0.0  
Since 1 July snowfall 0.0  
Snow Depth 0.00 in    
Sea Level Pressure  
Sea Level Pressure 30.14 in    
Wind  
Wind Speed 7 mph (NNE)    
Max Wind Speed 16 mph    
Max Gust Speed 25 mph    
Visibility 10 miles    
Events      
T = Trace of Precipitation, MM = Missing Value Source: NWS Daily Summary

Daily Weather History Graph

Daily Weather History Graph

Search for Another Location

Airport:

Trip Planner

Search our weather history database for the weather conditions in past years. The results will help you decide how hot, cold, wet, or windy it might be!

Date:

Astronomy

Dec. 17, 2013 Rise Set
Actual Time 7:01 AM EST 5:33 PM EST
Civil Twilight 6:36 AM EST 5:58 PM EST
Nautical Twilight 6:07 AM EST 6:27 PM EST
Astronomical Twilight 5:39 AM EST 6:55 PM EST
Moon 6:06 PM EST (12/17) 7:02 AM EST (12/17)
Length of Visible Light 11h 22m
Length of Day
10h 32m
Full, 100% of the Moon is Illuminated
Dec 17
Full
Dec 25
Last Quarter
Jan 1
New
Jan 7
First Quarter
Jan 15
Full

Hourly Weather History & Observations

Time (EST) Temp. Dew Point Humidity Pressure Visibility Wind Dir Wind Speed Gust Speed Precip Events Conditions
1:53 AM 63.0 °F 59.0 °F 87% 30.13 in 10.0 mi North 8.1 mph - N/A   Overcast
2:53 AM 62.1 °F 57.9 °F 86% 30.12 in 10.0 mi NNW 10.4 mph - N/A   Mostly Cloudy
3:53 AM 62.1 °F 57.0 °F 84% 30.12 in 10.0 mi NNW 8.1 mph - N/A   Mostly Cloudy
4:53 AM 61.0 °F 57.0 °F 87% 30.13 in 10.0 mi NNW 4.6 mph - N/A   Mostly Cloudy
5:53 AM 61.0 °F 57.0 °F 87% 30.13 in 10.0 mi NW 3.5 mph - N/A   Partly Cloudy
6:53 AM 62.1 °F 57.9 °F 86% 30.15 in 10.0 mi NW 3.5 mph - N/A   Mostly Cloudy
7:53 AM 63.0 °F 59.0 °F 87% 30.17 in 10.0 mi NNW 6.9 mph - N/A   Mostly Cloudy
8:53 AM 66.9 °F 60.1 °F 79% 30.18 in 10.0 mi North 6.9 mph - N/A   Mostly Cloudy
9:53 AM 70.0 °F 61.0 °F 73% 30.19 in 10.0 mi NNW 5.8 mph - N/A   Scattered Clouds
10:53 AM 75.9 °F 64.0 °F 67% 30.18 in 10.0 mi NNE 5.8 mph - N/A   Scattered Clouds
11:53 AM 77.0 °F 62.1 °F 60% 30.16 in 10.0 mi East 12.7 mph - N/A   Mostly Cloudy
12:53 PM 77.0 °F 61.0 °F 58% 30.12 in 10.0 mi NE 9.2 mph 18.4 mph N/A   Mostly Cloudy
1:53 PM 78.1 °F 60.1 °F 54% 30.11 in 10.0 mi East 13.8 mph - N/A   Mostly Cloudy
2:53 PM 78.1 °F 60.1 °F 54% 30.10 in 10.0 mi NE 11.5 mph 17.3 mph N/A   Scattered Clouds
3:53 PM 77.0 °F 60.1 °F 56% 30.10 in 10.0 mi ENE 8.1 mph - N/A   Scattered Clouds
4:53 PM 75.0 °F 60.1 °F 60% 30.12 in 10.0 mi NE 6.9 mph - N/A   Scattered Clouds
5:53 PM 73.0 °F 59.0 °F 61% 30.14 in 10.0 mi NE 8.1 mph - N/A   Scattered Clouds
6:53 PM 72.0 °F 59.0 °F 64% 30.14 in 10.0 mi NE 6.9 mph - N/A   Clear
7:53 PM 71.1 °F 59.0 °F 66% 30.16 in 10.0 mi NNE 3.5 mph - N/A   Partly Cloudy
8:53 PM 70.0 °F 59.0 °F 68% 30.17 in 10.0 mi NNE 4.6 mph - N/A   Scattered Clouds
9:53 PM 69.1 °F 59.0 °F 70% 30.18 in 10.0 mi NNE 3.5 mph - N/A   Clear
10:53 PM 69.1 °F 57.9 °F 68% 30.17 in 10.0 mi North 3.5 mph - N/A   Clear
11:53 PM 68.0 °F 57.9 °F 70% 30.16 in 10.0 mi North 3.5 mph - N/A   Clear